Chippewa, MI

9:58 PM EST on December 14, 2019 (GMT -0500)
Chippewa County International

Weather History for KCIU - October, 2019

Change the Weather History Date:

Wednesday, October 30, 2019

  Actual Average Record
Temperature  
Mean Temperature 36 °F -  
Max Temperature 46 °F 50 °F 66 °F (1989)
Min Temperature 27 °F 31 °F 19 °F (1983)
Degree Days  
Heating Degree Days 29    
Moisture  
Dew Point 28 °F    
Average Humidity 75    
Maximum Humidity 100    
Minimum Humidity 45    
Precipitation  
Precipitation 0.00 in - - ()
Sea Level Pressure  
Sea Level Pressure 30.25 in    
Wind  
Wind Speed 3 mph ()    
Max Wind Speed 8 mph    
Max Gust Speed -    
Visibility 10.0 miles    
Events Rain    
Averages and records for this station are not official NWS values.
T = Trace of Precipitation, MM = Missing Value Source: Averaged Metar Reports

Daily Weather History Graph

Daily Weather History Graph

Search for Another Location

Airport or City:

Astronomy

Oct. 30, 2019 Rise Set
Actual Time 8:15 AM EDT 6:26 PM EDT
Civil Twilight 7:44 AM EDT 6:57 PM EDT
Nautical Twilight 7:09 AM EDT 7:33 PM EDT
Astronomical Twilight 6:34 AM EDT 8:07 PM EDT
Moon 11:05 AM EDT (10/30) 8:25 PM EDT (10/30)
Length of Visible Light 11h 13m
Length of Day
10h 10m
Waxing Crescent, 8% of the Moon is Illuminated
Oct 30
Waxing Crescent
Nov 4
First Quarter
Nov 12
Full
Nov 19
Last Quarter
Nov 26
New

Hourly Weather History & Observations

Time (EDT) Temp. Windchill Dew Point Humidity Pressure Visibility Wind Dir Wind Speed Gust Speed Precip Events Conditions
12:56 AM 30.0 °F 24.1 °F 30.0 °F 100% 30.29 in 10.0 mi West 5.8 mph - N/A   Clear
1:56 AM 30.0 °F 25.2 °F 28.9 °F 96% 30.30 in 10.0 mi WSW 4.6 mph - N/A   Clear
2:56 AM 30.0 °F 26.5 °F 28.9 °F 96% 30.30 in 10.0 mi WSW 3.5 mph - N/A   Clear
3:56 AM 27.0 °F 23.0 °F 26.1 °F 96% 30.30 in 10.0 mi SSW 3.5 mph - N/A   Clear
4:56 AM 27.0 °F - 26.1 °F 96% 30.31 in 10.0 mi Calm Calm - N/A   Clear
5:56 AM 27.0 °F - 26.1 °F 96% 30.30 in 10.0 mi Calm Calm - N/A   Partly Cloudy
6:56 AM 28.0 °F 24.2 °F 26.1 °F 92% 30.31 in 10.0 mi SW 3.5 mph - N/A   Clear
7:56 AM 30.9 °F 26.2 °F 27.0 °F 85% 30.31 in 10.0 mi SW 4.6 mph - N/A   Clear
8:56 AM 30.9 °F - 26.1 °F 82% 30.32 in 10.0 mi Calm Calm - N/A   Clear
9:56 AM 30.9 °F - 28.9 °F 92% 30.32 in 10.0 mi Calm Calm - N/A   Clear
10:56 AM 37.0 °F 34.5 °F 33.1 °F 86% 30.32 in 10.0 mi West 3.5 mph - N/A   Clear
11:56 AM 42.1 °F 39.2 °F 28.0 °F 58% 30.32 in 10.0 mi SSW 4.6 mph - N/A   Clear
12:56 PM 44.1 °F 40.1 °F 24.1 °F 45% 30.30 in 10.0 mi West 6.9 mph - N/A   Clear
1:56 PM 45.0 °F 40.6 °F 26.1 °F 48% 30.26 in 10.0 mi South 8.1 mph - N/A   Clear
2:56 PM 45.0 °F 41.8 °F 28.9 °F 53% 30.23 in 10.0 mi SSW 5.8 mph - N/A   Clear
3:56 PM 44.1 °F - 28.0 °F 53% 30.21 in 10.0 mi Calm Calm - N/A   Clear
4:56 PM 44.1 °F - 27.0 °F 51% 30.20 in 10.0 mi Calm Calm - N/A   Mostly Cloudy
5:56 PM 42.1 °F 38.4 °F 30.9 °F 65% 30.19 in 10.0 mi North 5.8 mph - N/A   Overcast
6:56 PM 39.9 °F 36.7 °F 28.0 °F 63% 30.17 in 10.0 mi North 4.6 mph - N/A   Overcast
7:56 PM 39.0 °F - 28.9 °F 67% 30.17 in 10.0 mi Calm Calm - N/A   Overcast
8:56 PM 37.9 °F 33.5 °F 28.0 °F 68% 30.14 in 10.0 mi NNE 5.8 mph - N/A   Overcast
9:56 PM 37.9 °F 32.7 °F 28.0 °F 68% 30.12 in 10.0 mi NNE 6.9 mph - N/A   Overcast
10:56 PM 37.9 °F 35.5 °F 28.9 °F 70% 30.11 in 10.0 mi NNE 3.5 mph - N/A   Overcast
11:56 PM 37.0 °F 31.0 °F 30.0 °F 76% 30.12 in 10.0 mi NW 8.1 mph - 0.00 in Rain Light Rain